Regional Weather Roundup
Issued by NWS Upton, NY

Current Version | Previous Version | Text Only | Print | Product List | Glossary Off
Versions: 1 2 3 4 5 6 7 8 9 10 11 12 13 14 15 16 17 18 19 20 21 22 23 24 25 26 27 28 29 30 31 32 33 34 35 36 37 38 39 40 41 42 43 44 45 46 47 48 49 50
000 ASUS41 KOKX 030708 RWROKX REGIONAL WEATHER ROUNDUP NATIONAL WEATHER SERVICE NEW YORK NY 300 AM EDT FRI JUL 03 2015 NOTE: "FAIR" INDICATES FEW OR NO CLOUDS BELOW 12,000 FEET WITH NO SIGNIFICANT WEATHER AND/OR OBSTRUCTIONS TO VISIBILITY. NYZ071-072-176-178-NJZ106-104-030800- NEW YORK CITY METRO AREA CITY SKY/WX TMP DP RH WIND PRES REMARKS CENTRAL PARK CLEAR 70 55 59 VRB7 29.93S LAGUARDIA APRT PTCLDY 69 59 70 N7 29.89S KENNEDY INTL PTCLDY 70 63 78 N6 29.90S NEWARK/LIBERTY PTCLDY 68 59 73 N13 29.90S BRNX BOT. GARD N/A 66 54 63 N2 29.92R TETERBORO CLEAR 68 56 65 N5 29.90R $$ NYZ177-179-078>081-030800- LONG ISLAND NEW YORK CITY SKY/WX TMP DP RH WIND PRES REMARKS FARMINGDALE PTCLDY 68 64 87 N3 29.90S ISLIP CLEAR 66 63 90 NW6 29.88S SHIRLEY CLEAR 65 62 90 NW6 29.89S WESTHAMPTON PTCLDY 63 63 100 NW3 29.90S FOG MONTAUK POINT N/A 68 64 87 W5 29.88F $$ NYZ052-065-067-030800- HUDSON VALLEY CITY SKY/WX TMP DP RH WIND PRES REMARKS WHITE PLAINS PTCLDY 65 51 60 N8 29.90F NEWBURGH NOT AVBL MONTGOMERY PTCLDY 58 57 97 CALM 29.93S POUGHKEEPSIE CLEAR 58 55 90 CALM 29.93R ALBANY CLEAR 57 46 66 CALM 29.95R $$ NJZ001-105-106-008-010-013-015-019>022-104-030800- NEW JERSEY CITY SKY/WX TMP DP RH WIND PRES REMARKS NEWARK/LIBERTY PTCLDY 68 59 73 N13 29.90S TETERBORO CLEAR 68 56 65 N5 29.90R CALDWELL CLEAR 65 59 81 CALM 29.92S MORRISTOWN CLEAR 61 59 94 CALM 29.92S FOG SOMERVILLE CLEAR 61 59 93 NW3 29.89S SUSSEX CLEAR 58 55 90 CALM 29.94S ANDOVER N/A 59 57 93 CALM 29.94S TRENTON CLEAR 65 63 93 NW3 29.90S FOG MILLVILLE PTCLDY 61 60 97 CALM 29.90F FOG ATLANTIC CITY PTCLDY 62 60 93 CALM 29.89F FOG WRIGHTSTOWN FOG 63 63 100 CALM 29.89R VSB 3/4 TOMS RIVER CLEAR 61 59 94 CALM 29.90F BELMAR CLOUDY 64 61 88 CALM 29.89F $$ PAZ047>061-062-071-030800- EASTERN PENNSYLVANIA CITY SKY/WX TMP DP RH WIND PRES REMARKS PHILADELPHIA PTCLDY 69 63 81 CALM 29.91S ALLENTOWN CLEAR 63 59 87 CALM 29.93S SCRANTON PTCLDY 59 54 83 CALM 29.97S $$ CTZ002-004>006-009-010-012-RIZ004-006-007-MAZ004-011-015-030800- SOUTHERN NEW ENGLAND IN CT CITY SKY/WX TMP DP RH WIND PRES REMARKS BRADLEY INTL PTCLDY 61 50 67 NE3 29.89S HARTFORD CLEAR 64 53 67 VRB6 29.89S DANBURY PTCLDY 59 53 80 VRB3 29.93S WTRBRY/OXFORD CLEAR 61 48 63 N8 29.93S BRIDGEPORT MOCLDY 68 56 65 N8 29.89F MERIDEN CLOUDY 64 56 75 CALM 29.90S NEW HAVEN CLEAR 66 58 75 N3 29.89S CHESTER FAIR 64 57 77 NW3 29.90S GROTON CLEAR 64 59 83 N6 29.87S WILLIMANTIC CLEAR 62 59 90 CALM 29.89S IN RI CITY SKY/WX TMP DP RH WIND PRES REMARKS PROVIDENCE CLOUDY 68 57 68 N8 29.87S BLOCK ISLAND CLOUDY 64 61 88 W6 29.87S WESTERLY PTCLDY 64 61 90 CALM 29.87S IN MA CITY SKY/WX TMP DP RH WIND PRES REMARKS BOSTON CLOUDY 66 54 65 N8 29.87F WORCESTER PTCLDY 60 50 69 NW7 29.91S WESTFIELD CLEAR 60 52 74 N3 29.91S PROVINCETOWN CLOUDY 64 9 11 NW5 29.85F NANTUCKET CLOUDY 64 61 90 E7 29.84F $$ ANZ330-335-338-340-345-350-353-355-030800- COASTAL MARINE OBSERVATIONS STATION/POSITION TIME SKY/WX TEMP WIND PRES VSBY WAVE AIR SEA DIR/SP/G HT/PER (UTC) (F) (DEG/KT/KT) (MB) (MI) (FT/S) NY HARB ENTRANCE 0650 69 69 280/ 4/ 4 1011.8 2/ 8 4S FIRE IS 0603 69 N/A 3/ 8 20S FIRE ISLAND 0650 67 67 330/ 8/ 10 1011.6 3/ 8 GREAT SOUTH BAY 0600 70 75 320/ 10/ 10 N/A 23SW MTP 0650 65 66 290/ 8/ 10 1011.3 3/ 8 HUDSON CANYON NOT AVBL KINGS POINT 0600 68 66 50/ 3/ 4 1011.7 CENTRAL LI SOUND NOT AVBL EASTERN LI SOUND 0600 65 63 290/ 4/ 6 N/A ROBBINS REEF 0600 69 300/ 6/ 7 1011.2 $$ >>>>>>>>>>>>>>>>>>>>>>>>>>>> KEY <<<<<<<<<<<<<<<<<<<<<<<<<<< > < > SKY/WX - SKY CONDITION/PRESENT WEATHER < > TMP - TEMPERATURE IN FAHRENHEIT < > DP - DEWPOINT IN FAHRENHEIT < > RH - RELATIVE HUMIDITY IN PERCENT < > WIND - DIRECTION AND SPEED IN MPH < > PRES - MEAN SEA LEVEL PRESSURE IN INCHES OF HG < > WCI - WIND CHILL INDEX < > VSB - VISIBILITY IN MILES < > HX - HEAT INDEX < > TC - TEMPERATURE IN CELSIUS < > VRB - VARIABLE WIND DIRECTION < > < >>>>>>>>>>>>>>>>>>>>>>>>>>>> KEY <<<<<<<<<<<<<<<<<<<<<<<<<<<

USA.gov is the U.S. government's official web portal to all federal, state and local government web resources and services.